Latest Weather Observations for Point Wilson

IDV60901

Issued at 6:21 pm EST Sunday 2 August 2015 (issued every 10 minutes, with the page automatically refreshed every 10 minutes)

About weather observations | Map of Melbourne area stations | Latest observations for Melbourne area | Other Formats
Station Details ID: 087166 Name: POINT WILSON Lat: -38.10 Lon: 144.54 Height: 18.0 m
Data from the previous 72 hours. | See also: Recent months for locations in Victoria
Date/Time
EST
Tmp

°C
App
Tmp
°C
Dew
Point
°C
Rel
Hum
%
Delta-T

°C
Wind Press
QNH
hPa
Press
MSL
hPa
Rain
since
9 am
mm
Dir
 
Spd
km/h
Gust
km/h
Spd
kts
Gust
kts
02/06:00pm - - - - - W 33 39 18 21 - - -
02/05:30pm - - - - - W 37 46 20 25 - - -
02/05:06pm - - - - - W 44 65 24 35 - - -
02/05:00pm - - - - - W 41 50 22 27 - - -
02/04:30pm - - - - - W 37 48 20 26 - - -
02/04:00pm - - - - - WSW 28 39 15 21 - - -
02/03:59pm - - - - - WSW 26 39 14 21 - - -
02/03:34pm - - - - - W 46 65 25 35 - - -
02/03:30pm - - - - - WNW 50 65 27 35 - - -
02/03:06pm - - - - - WNW 48 67 26 36 - - -
02/03:00pm - - - - - WNW 50 67 27 36 - - -
02/02:36pm - - - - - WNW 43 69 23 37 - - -
02/02:30pm - - - - - WNW 39 52 21 28 - - -
02/02:00pm - - - - - WNW 37 48 20 26 - - -
02/01:30pm - - - - - WNW 44 57 24 31 - - -
02/01:21pm - - - - - WNW 41 59 22 32 - - -
02/01:00pm - - - - - WNW 48 59 26 32 - - -
02/12:45pm - - - - - WNW 48 67 26 36 - - -
02/12:30pm - - - - - NW 50 65 27 35 - - -
02/12:24pm - - - - - NW 46 65 25 35 - - -
02/12:00pm - - - - - WNW 43 59 23 32 - - -
02/11:38am - - - - - WNW 44 67 24 36 - - -
02/11:30am - - - - - NW 44 52 24 28 - - -
02/11:00am - - - - - NW 41 50 22 27 - - -
02/10:30am - - - - - WNW 39 50 21 27 - - -
02/10:00am - - - - - NW 44 54 24 29 - - -
02/09:30am - - - - - NW 43 50 23 27 - - -
02/09:00am - - - - - NW 35 44 19 24 - - -
02/08:30am - - - - - N 24 28 13 15 - - -
02/08:00am - - - - - N 26 30 14 16 - - -
02/07:30am - - - - - NNW 19 26 10 14 - - -
02/07:00am - - - - - N 13 17 7 9 - - -
02/06:30am - - - - - N 11 13 6 7 - - -
02/06:00am - - - - - N 17 19 9 10 - - -
02/05:30am - - - - - N 20 24 11 13 - - -
02/05:00am - - - - - N 22 24 12 13 - - -
02/04:30am - - - - - N 20 24 11 13 - - -
02/04:00am - - - - - NNW 17 20 9 11 - - -
02/03:30am - - - - - NNW 17 20 9 11 - - -
02/03:00am - - - - - NNW 19 22 10 12 - - -
02/02:30am - - - - - NNW 15 17 8 9 - - -
02/02:00am - - - - - NNW 15 17 8 9 - - -
02/01:30am - - - - - NNW 17 19 9 10 - - -
02/01:00am - - - - - WNW 13 17 7 9 - - -
02/12:30am - - - - - NNW 15 17 8 9 - - -
02/12:00am - - - - - NNW 15 19 8 10 - - -
 
Date/Time
EST
Tmp

°C
App
Tmp
°C
Dew
Point
°C
Rel
Hum
%
Delta-T

°C
Wind Press
QNH
hPa
Press
MSL
hPa
Rain
since
9 am
mm
Dir
 
Spd
km/h
Gust
km/h
Spd
kts
Gust
kts
01/11:30pm - - - - - NNW 15 17 8 9 - - -
01/11:00pm - - - - - NNW 15 17 8 9 - - -
01/10:30pm - - - - - NW 13 15 7 8 - - -
01/10:00pm - - - - - NNW 15 17 8 9 - - -
01/09:30pm - - - - - NW 15 17 8 9 - - -
01/09:00pm - - - - - NW 15 19 8 10 - - -
01/08:30pm - - - - - NW 15 15 8 8 - - -
01/08:00pm - - - - - NW 11 13 6 7 - - -
01/07:30pm - - - - - WNW 11 13 6 7 - - -
01/07:00pm - - - - - NW 11 13 6 7 - - -
01/06:30pm - - - - - NW 13 15 7 8 - - -
01/06:00pm - - - - - NW 13 15 7 8 - - -
01/05:30pm - - - - - WNW 17 20 9 11 - - -
01/05:00pm - - - - - WNW 15 17 8 9 - - -
01/04:30pm - - - - - W 11 13 6 7 - - -
01/04:00pm - - - - - W 9 11 5 6 - - -
01/03:30pm - - - - - W 9 9 5 5 - - -
01/03:00pm - - - - - W 11 13 6 7 - - -
01/02:30pm - - - - - WSW 13 17 7 9 - - -
01/02:00pm - - - - - WSW 19 22 10 12 - - -
01/01:30pm - - - - - WSW 22 24 12 13 - - -
01/01:00pm - - - - - W 22 28 12 15 - - -
01/12:30pm - - - - - W 19 22 10 12 - - -
01/12:00pm - - - - - W 13 17 7 9 - - -
01/11:30am - - - - - W 17 20 9 11 - - -
01/11:00am - - - - - W 20 22 11 12 - - -
01/10:30am - - - - - W 22 24 12 13 - - -
01/10:00am - - - - - W 24 30 13 16 - - -
01/09:30am - - - - - W 24 30 13 16 - - -
01/09:00am - - - - - WSW 28 35 15 19 - - -
01/08:30am - - - - - WSW 35 43 19 23 - - -
01/08:00am - - - - - WSW 28 35 15 19 - - -
01/07:54am - - - - - WSW 28 44 15 24 - - -
01/07:30am - - - - - W 41 54 22 29 - - -
01/07:24am - - - - - W 37 48 20 26 - - -
01/07:00am - - - - - NW 33 41 18 22 - - -
01/06:30am - - - - - NNW 41 48 22 26 - - -
01/06:03am - - - - - NNW 33 54 18 29 - - -
01/06:00am - - - - - NNW 33 41 18 22 - - -
01/05:30am - - - - - N 39 44 21 24 - - -
01/05:00am - - - - - N 44 52 24 28 - - -
01/04:30am - - - - - N 39 44 21 24 - - -
01/04:00am - - - - - N 32 46 17 25 - - -
01/03:30am - - - - - NNE 32 43 17 23 - - -
01/03:00am - - - - - N 35 43 19 23 - - -
01/02:30am - - - - - N 33 43 18 23 - - -
01/02:00am - - - - - N 28 32 15 17 - - -
01/01:30am - - - - - N 35 41 19 22 - - -
01/01:00am - - - - - N 28 33 15 18 - - -
01/12:30am - - - - - N 37 41 20 22 - - -
01/12:00am - - - - - N 37 41 20 22 - - -
 
Date/Time
EST
Tmp

°C
App
Tmp
°C
Dew
Point
°C
Rel
Hum
%
Delta-T

°C
Wind Press
QNH
hPa
Press
MSL
hPa
Rain
since
9 am
mm
Dir
 
Spd
km/h
Gust
km/h
Spd
kts
Gust
kts
31/11:30pm - - - - - N 33 39 18 21 - - -
31/11:00pm - - - - - NNE 30 32 16 17 - - -
31/10:30pm - - - - - NNE 28 33 15 18 - - -
31/10:00pm - - - - - NNE 22 24 12 13 - - -
31/09:30pm - - - - - NNE 17 19 9 10 - - -
31/09:00pm - - - - - N 13 15 7 8 - - -
31/08:30pm - - - - - NNW 11 13 6 7 - - -
31/08:00pm - - - - - NNW 13 19 7 10 - - -
31/07:30pm - - - - - N 19 20 10 11 - - -
31/07:00pm - - - - - N 17 20 9 11 - - -
31/06:30pm - - - - - NNW 13 15 7 8 - - -
31/06:00pm - - - - - CALM 0 6 0 3 - - -
31/05:30pm - - - - - E 4 9 2 5 - - -
31/05:00pm - - - - - ENE 7 9 4 5 - - -
31/04:30pm - - - - - N 11 13 6 7 - - -
31/04:00pm - - - - - N 13 17 7 9 - - -
31/03:30pm - - - - - NNW 11 15 6 8 - - -
31/03:00pm - - - - - NNW 15 19 8 10 - - -
31/02:30pm - - - - - NW 17 20 9 11 - - -
31/02:00pm - - - - - NNW 20 26 11 14 - - -
31/01:30pm - - - - - NNW 17 24 9 13 - - -
31/01:00pm - - - - - NW 22 30 12 16 - - -
31/12:30pm - - - - - WNW 20 28 11 15 - - -
31/12:00pm - - - - - NW 22 26 12 14 - - -
31/11:30am - - - - - W 13 22 7 12 - - -
31/11:00am - - - - - WNW 13 15 7 8 - - -
31/10:30am - - - - - NNE 11 15 6 8 - - -
31/10:00am - - - - - NW 13 15 7 8 - - -
31/09:30am - - - - - WNW 15 20 8 11 - - -
31/09:00am - - - - - NW 15 17 8 9 - - -
31/08:30am - - - - - NW 15 19 8 10 - - -
31/08:00am - - - - - WNW 22 26 12 14 - - -
31/07:30am - - - - - WNW 20 24 11 13 - - -
31/07:00am - - - - - WNW 22 28 12 15 - - -
31/06:30am - - - - - WNW 20 24 11 13 - - -
31/06:00am - - - - - WNW 22 28 12 15 - - -
31/05:30am - - - - - WNW 22 24 12 13 - - -
31/05:00am - - - - - W 24 28 13 15 - - -
31/04:30am - - - - - W 30 33 16 18 - - -
31/04:00am - - - - - W 30 35 16 19 - - -
31/03:30am - - - - - W 24 30 13 16 - - -
31/03:00am - - - - - W 28 32 15 17 - - -
31/02:30am - - - - - W 28 33 15 18 - - -
31/02:00am - - - - - W 30 32 16 17 - - -
31/01:30am - - - - - WNW 22 33 12 18 - - -
31/01:00am - - - - - WNW 19 20 10 11 - - -
31/12:30am - - - - - WNW 19 22 10 12 - - -
31/12:00am - - - - - WNW 20 24 11 13 - - -
 
Date/Time
EST
Tmp

°C
App
Tmp
°C
Dew
Point
°C
Rel
Hum
%
Delta-T

°C
Wind Press
QNH
hPa
Press
MSL
hPa
Rain
since
9 am
mm
Dir
 
Spd
km/h
Gust
km/h
Spd
kts
Gust
kts
30/11:30pm - - - - - WNW 17 20 9 11 - - -
30/11:00pm - - - - - WNW 19 22 10 12 - - -
30/10:30pm - - - - - WNW 22 28 12 15 - - -
30/10:00pm - - - - - W 28 33 15 18 - - -
30/09:30pm - - - - - W 37 43 20 23 - - -
30/09:00pm - - - - - W 33 39 18 21 - - -
30/08:30pm - - - - - W 46 65 25 35 - - -
30/08:23pm - - - - - W 39 65 21 35 - - -
30/08:16pm - - - - - WNW 37 41 20 22 - - -
30/08:00pm - - - - - NNW 35 43 19 23 - - -
30/07:30pm - - - - - N 43 52 23 28 - - -
30/07:00pm - - - - - N 56 65 30 35 - - -
30/06:30pm - - - - - N 57 70 31 38 - - -

Latest Capital City Observations: Canberra | Sydney | Melbourne | Brisbane | Adelaide | Perth | Hobart | Darwin

Other Formats:

Comma delimited format used in spreadsheet applications
http://www.bom.gov.au/fwo/IDV60901/IDV60901.94847.axf

JavaScript Object Notation format (JSON) in row-major order
http://www.bom.gov.au/fwo/IDV60901/IDV60901.94847.json